Torna al catalogo

CZ-4 DEB

AttivoSSO
NORAD 37616·DEBRIS·🇨🇳 China

Lanciato Sep 3, 1990 da Taiyuan Satellite Launch Center

Loading…

Prossimi Passaggi (prossime 24 ore)

TLE

In scadenzaSource: Space-Track

Epoca: Sep 7, 2026, 17:58 UTC

1 37616U 90081DC  26250.74923521  .00000073  00000-0  85937-4 0  9995
2 37616  98.9217 222.9989 0101276  38.7423 322.0944 13.92240167728147

Traccia CZ-4 DEB in tempo reale con AllMySat

Download on the App Store